Location: Newark
(52.2583°N, 7.1190°W)
Time: 21:06:27
(UTC+00:00)

S-56A Canister/Altair - Visible Passes

Search period start: 17 November 2019 00:00
Search period end: 27 November 2019 00:00
Orbit: 634 x 2498 km, 38.9° (Epoch: 16 November)

Date Brightness Start Highest point End Pass type
(mag) Time Alt. Az. Time Alt. Az. Time Alt. Az.
17 Nov 9.6 18:34:03 10° SW 18:39:59 22° S 18:43:03 16° SE visible
17 Nov 10.0 20:37:59 10° WSW 20:40:28 17° SW 20:40:28 17° SW visible
18 Nov 9.9 18:00:54 10° SW 18:07:20 22° SSE 18:12:08 10° ESE visible
18 Nov 9.6 20:04:48 10° WSW 20:09:34 23° SSW 20:09:34 23° SSW visible
19 Nov 10.0 17:27:42 10° SSW 17:34:37 23° SSE 17:39:53 10° ESE visible
19 Nov 9.3 19:31:33 10° WSW 19:37:48 26° S 19:38:39 25° S visible
20 Nov 10.2 16:54:30 10° SSW 17:01:53 23° SSE 17:07:29 10° ESE visible
20 Nov 9.4 18:58:15 10° WSW 19:05:11 28° S 19:07:45 22° SSE visible
20 Nov 10.3 21:03:32 10° WSW 21:05:11 14° SW 21:05:11 14° SW visible
21 Nov 9.7 18:24:55 10° SW 18:32:32 29° S 18:36:52 15° SE visible
21 Nov 9.9 20:30:09 10° WSW 20:34:17 20° SW 20:34:17 20° SW visible
22 Nov 9.9 17:51:31 10° SW 17:59:48 30° S 18:05:46 10° ESE visible
22 Nov 9.6 19:56:44 10° WSW 20:02:49 24° SSW 20:03:24 23° SSW visible
23 Nov 10.1 17:18:05 10° SW 17:27:02 32° S 17:33:26 10° ESE visible
23 Nov 9.6 19:23:16 10° WSW 19:30:14 27° SSW 19:32:33 22° SSE visible
24 Nov 9.7 18:49:47 10° WSW 18:57:35 29° SSW 19:01:42 17° SSE visible
24 Nov 10.4 20:56:36 10° WSW 20:59:08 13° SW 20:59:08 13° SW visible
25 Nov 10.0 18:16:16 10° WSW 18:24:53 32° SSW 18:30:54 11° SE visible
25 Nov 10.1 20:22:43 10° WSW 20:27:27 17° SW 20:28:20 16° SSW visible
26 Nov 10.1 17:42:42 10° WSW 17:52:07 34° S 17:58:46 10° SE visible
26 Nov 10.0 19:48:59 10° WSW 19:54:56 20° SSW 19:57:35 16° S visible
